Location: Unspecified
(0.0000°N, 0.0000°E)
Time: 16:45:50
(UTC+00:00)

Envisat - Pass Details

Date: 10 December 2018
Orbit: 764 x 766 km, 98.2° (Epoch: 13 December)

Event Time Altitude Azimuth Distance (km) Brightness Sun altitude
Rises 18:11:37 0° 132° (SE) 3,229 6.0 -4.3°
Reaches altitude 10° 18:15:11 10° 106° (ESE) 2,299 5.0 -5.1°
Maximum altitude 18:17:32 13° 78° (ENE) 2,072 4.6 -5.7°
Drops below altitude 10° 18:19:54 10° 49° (NE) 2,293 4.9 -6.2°
Sets 18:23:25 0° 23° (NNE) 3,215 5.8 -7.0°
